| time (UTC) | temp C | wind direction | speed KPH | gust KPH | rain 1hr cm | rain 24hr cm | rain mn cm | humidity % | barometer mb |
| 20260505051610 | 13 | 165 | 6.4 | 17.7 | 0.00 | 0.00 | 0.00 | 99 | 1008.1 |
| 20260505051410 | 13 | 157 | 11.3 | 17.7 | 0.00 | 0.00 | 0.00 | 99 | 1008.1 |
| 20260505051016 | 13 | 142 | 8.0 | 16.1 | 0.00 | 0.00 | 0.00 | 99 | 1008.1 |
| 20260505050810 | 13 | 131 | 14.5 | 17.7 | 0.00 | 0.00 | 0.00 | 99 | 1008.1 |
| 20260505050610 | 13 | 178 | 9.7 | 17.7 | 0.00 | 0.00 | 0.00 | 99 | 1008.1 |
| 20260505050410 | 13 | 165 | 12.9 | 22.5 | 0.00 | 0.00 | 0.00 | 99 | 1008.1 |
| 20260505050210 | 13 | 150 | 12.9 | 17.7 | 0.00 | 0.00 | 0.00 | 99 | 1008.1 |
| 20260505041210 | 13 | 168 | 4.8 | 14.5 | 0.00 | 0.00 | 0.00 | 99 | 1008.1 |
| 20260505040810 | 13 | 178 | 6.4 | 14.5 | 0.00 | 0.00 | 0.00 | 99 | 1008.8 |
| 20260505040610 | 13 | 157 | 9.7 | 17.7 | 0.00 | 0.00 | 0.00 | 99 | 1008.5 |
| 20260505040210 | 13 | 147 | 9.7 | 14.5 | 0.00 | 0.00 | 0.00 | 99 | 1008.1 |
| 20260505040036 | 13 | 157 | 9.7 | 14.5 | 0.00 | 0.00 | 0.00 | 99 | 1008.1 |
| 20260505035611 | 13 | 161 | 9.7 | 16.1 | 0.00 | 0.00 | 0.00 | 99 | 1008.5 |
| 20260505035016 | 13 | 177 | 8.0 | 17.7 | 0.00 | 0.00 | 0.00 | 99 | 1008.8 |
| 20260505034810 | 13 | 178 | 9.7 | 9.7 | 0.00 | 0.00 | 0.00 | 99 | 1008.5 |
| 20260505034610 | 13 | 178 | 9.7 | 12.9 | 0.00 | 0.00 | 0.00 | 99 | 1008.5 |
| 20260505034410 | 13 | 152 | 8.0 | 12.9 | 0.00 | 0.00 | 0.00 | 99 | 1008.5 |
| 20260505034210 | 13 | 165 | 8.0 | 12.9 | 0.00 | 0.00 | 0.00 | 99 | 1008.5 |
| 20260505034018 | 13 | 163 | 9.7 | 11.3 | 0.00 | 0.00 | 0.00 | 99 | 1008.5 |
| 20260505033810 | 13 | 159 | 9.7 | 12.9 | 0.00 | 0.00 | 0.00 | 99 | 1008.5 |
| 20260505033610 | 13 | 172 | 9.7 | 12.9 | 0.00 | 0.00 | 0.00 | 99 | 1008.5 |
| 20260505033410 | 13 | 163 | 9.7 | 12.9 | 0.00 | 0.00 | 0.00 | 99 | 1008.5 |
| 20260505033210 | 13 | 157 | 12.9 | 14.5 | 0.00 | 0.00 | 0.00 | 99 | 1008.5 |
| 20260505033024 | 13 | 165 | 4.8 | 11.3 | 0.00 | 0.00 | 0.00 | 99 | 1008.5 |
| 20260505032810 | 13 | 177 | 9.7 | 12.9 | 0.00 | 0.00 | 0.00 | 99 | 1008.5 |
| 20260505032612 | 13 | 180 | 8.0 | 14.5 | 0.00 | 0.00 | 0.00 | 99 | 1008.5 |
| 20260505032410 | 13 | 191 | 9.7 | 11.3 | 0.00 | 0.00 | 0.00 | 99 | 1008.5 |
| 20260505032016 | 13 | 172 | 9.7 | 12.9 | 0.00 | 0.00 | 0.00 | 99 | 1008.5 |
| 20260505031810 | 13 | 158 | 9.7 | 14.5 | 0.00 | 0.00 | 0.00 | 99 | 1008.8 |
| 20260505031610 | 13 | 192 | 9.7 | 9.7 | 0.00 | 0.00 | 0.00 | 99 | 1008.8 |
| 20260505031409 | 13 | 167 | 6.4 | 11.3 | 0.00 | 0.00 | 0.00 | 99 | 1008.8 |
| 20260505031211 | 13 | 163 | 8.0 | 11.3 | 0.00 | 0.00 | 0.00 | 99 | 1008.8 |
| 20260505031016 | 13 | 171 | 9.7 | 11.3 | 0.00 | 0.00 | 0.00 | 99 | 1008.8 |
| 20260505030810 | 13 | 178 | 9.7 | 12.9 | 0.00 | 0.00 | 0.00 | 99 | 1008.8 |
| 20260505030610 | 13 | 176 | 11.3 | 12.9 | 0.00 | 0.00 | 0.00 | 99 | 1009.1 |
| 20260505030410 | 13 | 178 | 9.7 | 12.9 | 0.00 | 0.00 | 0.00 | 99 | 1009.1 |
| 20260505030036 | 13 | 159 | 11.3 | 11.3 | 0.00 | 0.00 | 0.00 | 99 | 1009.1 |
| 20260505025611 | 13 | 155 | 6.4 | 9.7 | 0.00 | 0.00 | 0.00 | 99 | 1008.8 |
| 20260505025410 | 13 | 170 | 4.8 | 6.4 | 0.00 | 0.00 | 0.00 | 99 | 1009.1 |
| 20260505025017 | 13 | 173 | 3.2 | 9.7 | 0.00 | 0.00 | 0.00 | 99 | 1009.1 |
| 20260505024810 | 13 | 175 | 4.8 | 9.7 | 0.00 | 0.00 | 0.00 | 99 | 1009.1 |
| 20260505024610 | 13 | 161 | 8.0 | 9.7 | 0.00 | 0.00 | 0.00 | 99 | 1009.1 |
| 20260505024410 | 13 | 161 | 8.0 | 11.3 | 0.00 | 0.00 | 0.00 | 99 | 1009.5 |
| 20260505024018 | 13 | 170 | 8.0 | 9.7 | 0.00 | 0.00 | 0.00 | 99 | 1009.5 |
| 20260505023610 | 13 | 178 | 6.4 | 9.7 | 0.00 | 0.00 | 0.00 | 99 | 1009.5 |
| 20260505023410 | 13 | 170 | 6.4 | 11.3 | 0.00 | 0.00 | 0.00 | 99 | 1009.5 |
| 20260505023023 | 13 | 180 | 9.7 | 9.7 | 0.00 | 0.00 | 0.00 | 99 | 1009.5 |
| 20260505022810 | 13 | 179 | 8.0 | 9.7 | 0.00 | 0.00 | 0.00 | 99 | 1009.5 |
| 20260505022610 | 13 | 170 | 9.7 | 9.7 | 0.00 | 0.00 | 0.00 | 99 | 1009.5 |
| 20260505022410 | 13 | 167 | 8.0 | 12.9 | 0.00 | 0.00 | 0.00 | 99 | 1009.5 |
| 20260505022215 | 13 | 178 | 9.7 | 12.9 | 0.00 | 0.00 | 0.00 | 99 | 1009.1 |
| 20260505022016 | 13 | 149 | 9.7 | 12.9 | 0.00 | 0.00 | 0.00 | 99 | 1009.5 |
| 20260505021810 | 13 | 168 | 9.7 | 11.3 | 0.00 | 0.00 | 0.00 | 99 | 1009.5 |
| 20260505021611 | 13 | 178 | 9.7 | 11.3 | 0.00 | 0.00 | 0.00 | 99 | 1009.5 |
| 20260505021410 | 13 | 161 | 9.7 | 12.9 | 0.00 | 0.00 | 0.00 | 99 | 1009.1 |
| 20260505021210 | 13 | 165 | 11.3 | 11.3 | 0.00 | 0.00 | 0.00 | 99 | 1009.1 |
| 20260505021018 | 13 | 174 | 9.7 | 11.3 | 0.00 | 0.00 | 0.00 | 99 | 1009.1 |
| 20260505020810 | 13 | 166 | 9.7 | 11.3 | 0.00 | 0.00 | 0.00 | 99 | 1009.1 |
| 20260505020610 | 13 | 183 | 4.8 | 9.7 | 0.00 | 0.00 | 0.00 | 99 | 1009.1 |
| 20260505020410 | 13 | 182 | 8.0 | 12.9 | 0.00 | 0.00 | 0.00 | 99 | 1009.1 |
| 20260505020211 | 13 | 175 | 8.0 | 9.7 | 0.00 | 0.00 | 0.00 | 99 | 1008.8 |
| 20260505020034 | 13 | 178 | 6.4 | 9.7 | 0.00 | 0.00 | 0.00 | 99 | 1009.1 |
| 20260505015410 | 13 | 166 | 9.7 | 12.9 | 0.00 | 0.00 | 0.00 | 99 | 1009.1 |
| 20260505015210 | 13 | 180 | 8.0 | 12.9 | 0.00 | 0.00 | 0.00 | 99 | 1009.1 |
| 20260505014810 | 13 | 170 | 9.7 | 9.7 | 0.00 | 0.00 | 0.00 | 99 | 1009.1 |
| 20260505014610 | 13 | 178 | 8.0 | 12.9 | 0.00 | 0.00 | 0.00 | 99 | 1009.1 |
| 20260505014211 | 13 | 175 | 6.4 | 12.9 | 0.00 | 0.00 | 0.00 | 99 | 1009.1 |
| 20260505014016 | 13 | 175 | 8.0 | 11.3 | 0.00 | 0.00 | 0.00 | 99 | 1009.5 |
| 20260505013810 | 13 | 157 | 9.7 | 12.9 | 0.00 | 0.00 | 0.00 | 99 | 1009.5 |
| 20260505013610 | 13 | 168 | 9.7 | 9.7 | 0.00 | 0.00 | 0.00 | 99 | 1009.5 |
| 20260505013410 | 13 | 169 | 4.8 | 12.9 | 0.00 | 0.00 | 0.00 | 99 | 1009.5 |
| 20260505013209 | 13 | 177 | 6.4 | 9.7 | 0.00 | 0.00 | 0.00 | 99 | 1009.5 |
| 20260505013024 | 13 | 165 | 9.7 | 12.9 | 0.00 | 0.00 | 0.00 | 99 | 1009.5 |
| 20260505012810 | 13 | 168 | 6.4 | 11.3 | 0.00 | 0.00 | 0.00 | 99 | 1009.8 |
| 20260505012410 | 13 | 174 | 8.0 | 14.5 | 0.00 | 0.00 | 0.00 | 99 | 1009.5 |
| 20260505012211 | 13 | 151 | 9.7 | 11.3 | 0.00 | 0.00 | 0.00 | 99 | 1009.5 |
| 20260505011810 | 13 | 156 | 9.7 | 12.9 | 0.00 | 0.00 | 0.00 | 99 | 1009.8 |
| 20260505011410 | 13 | 173 | 6.4 | 9.7 | 0.00 | 0.00 | 0.00 | 99 | 1009.8 |
| 20260505011017 | 13 | 160 | 9.7 | 11.3 | 0.00 | 0.00 | 0.00 | 99 | 1009.8 |
| 20260505010810 | 13 | 181 | 6.4 | 9.7 | 0.00 | 0.00 | 0.00 | 99 | 1009.8 |
| 20260505010410 | 13 | 174 | 6.4 | 9.7 | 0.00 | 0.00 | 0.00 | 99 | 1009.8 |
| 20260505010211 | 13 | 179 | 8.0 | 9.7 | 0.00 | 0.00 | 0.00 | 99 | 1009.8 |
| 20260505010033 | 13 | 174 | 9.7 | 11.3 | 0.00 | 0.00 | 0.00 | 99 | 1009.8 |
| 20260505005810 | 13 | 167 | 9.7 | 9.7 | 0.00 | 0.00 | 0.00 | 99 | 1009.8 |
| 20260505005610 | 13 | 180 | 9.7 | 9.7 | 0.00 | 0.00 | 0.00 | 99 | 1009.8 |
| 20260505005410 | 13 | 176 | 9.7 | 9.7 | 0.00 | 0.00 | 0.00 | 99 | 1009.8 |
| 20260505004810 | 13 | 180 | 8.0 | 9.7 | 0.00 | 0.00 | 0.00 | 99 | 1009.8 |
| 20260505004610 | 13 | 179 | 9.7 | 9.7 | 0.00 | 0.00 | 0.00 | 99 | 1009.8 |
| 20260505004411 | 13 | 178 | 9.7 | 9.7 | 0.00 | 0.00 | 0.00 | 99 | 1009.8 |
| 20260505003610 | 13 | 179 | 9.7 | 9.7 | 0.00 | 0.00 | 0.00 | 99 | 1009.8 |
| 20260505003411 | 13 | 177 | 9.7 | 9.7 | 0.00 | 0.00 | 0.00 | 99 | 1009.8 |
| 20260505003210 | 13 | 176 | 9.7 | 9.7 | 0.00 | 0.00 | 0.00 | 99 | 1009.8 |
| 20260505003024 | 13 | 176 | 9.7 | 9.7 | 0.00 | 0.00 | 0.00 | 99 | 1009.8 |
| 20260505002810 | 13 | 177 | 9.7 | 9.7 | 0.00 | 0.00 | 0.00 | 99 | 1009.8 |
| 20260505002610 | 13 | 177 | 9.7 | 9.7 | 0.00 | 0.00 | 0.00 | 99 | 1009.8 |
| 20260505002410 | 13 | 179 | 9.7 | 9.7 | 0.00 | 0.00 | 0.00 | 99 | 1009.8 |
| 20260505002210 | 13 | 179 | 9.7 | 9.7 | 0.00 | 0.00 | 0.00 | 99 | 1009.8 |
| 20260505002015 | 13 | 175 | 8.0 | 9.7 | 0.00 | 0.00 | 0.00 | 99 | 1009.8 |
| 20260505001810 | 13 | 178 | 9.7 | 9.7 | 0.00 | 0.00 | 0.00 | 99 | 1009.8 |
| 20260505001611 | 13 | 178 | 9.7 | 9.7 | 0.00 | 0.00 | 0.00 | 99 | 1009.8 |
| 20260505001210 | 13 | 172 | 9.7 | 9.7 | 0.00 | 0.00 | 0.00 | 99 | 1009.8 |
| 20260505001016 | 13 | 178 | 8.0 | 9.7 | 0.00 | 0.00 | 0.00 | 99 | 1009.8 |
| 20260505000810 | 13 | 180 | 9.7 | 9.7 | 0.00 | 0.00 | 0.00 | 98 | 1009.8 |
| 20260505000611 | 13 | 182 | 9.7 | 9.7 | 0.00 | 0.00 | 0.00 | 98 | 1009.8 |
| 20260505000211 | 13 | 179 | 8.0 | 9.7 | 0.00 | 0.00 | 0.00 | 98 | 1009.8 |
| 20260505000038 | 13 | 179 | 9.7 | 9.7 | 0.00 | 0.00 | 0.00 | 98 | 1009.8 |
| 20260504235810 | 13 | 180 | 9.7 | 11.3 | 0.00 | 0.00 | 0.00 | 98 | 1009.8 |
| 20260504235610 | 13 | 175 | 9.7 | 9.7 | 0.00 | 0.00 | 0.00 | 98 | 1009.8 |
| 20260504235410 | 13 | 173 | 8.0 | 9.7 | 0.00 | 0.00 | 0.00 | 98 | 1009.8 |
| 20260504235017 | 13 | 180 | 9.7 | 11.3 | 0.00 | 0.00 | 0.00 | 98 | 1009.8 |
| 20260504234810 | 13 | 180 | 9.7 | 12.9 | 0.00 | 0.00 | 0.00 | 98 | 1009.8 |
| 20260504234610 | 13 | 180 | 12.9 | 12.9 | 0.00 | 0.00 | 0.00 | 98 | 1009.8 |
| 20260504234411 | 13 | 183 | 9.7 | 11.3 | 0.00 | 0.00 | 0.00 | 98 | 1009.8 |
| 20260504234016 | 13 | 180 | 9.7 | 11.3 | 0.00 | 0.00 | 0.00 | 98 | 1009.8 |
| 20260504233810 | 13 | 180 | 9.7 | 9.7 | 0.00 | 0.00 | 0.00 | 98 | 1009.8 |
| 20260504233610 | 13 | 180 | 8.0 | 11.3 | 0.00 | 0.00 | 0.00 | 98 | 1009.5 |
| 20260504233410 | 13 | 180 | 9.7 | 11.3 | 0.00 | 0.00 | 0.00 | 98 | 1009.8 |
| 20260504233210 | 13 | 177 | 9.7 | 11.3 | 0.00 | 0.00 | 0.00 | 98 | 1009.8 |
| 20260504233023 | 13 | 178 | 9.7 | 9.7 | 0.00 | 0.00 | 0.00 | 98 | 1009.5 |
| 20260504232811 | 13 | 180 | 8.0 | 9.7 | 0.00 | 0.00 | 0.00 | 98 | 1009.5 |
| 20260504232610 | 13 | 180 | 8.0 | 11.3 | 0.00 | 0.00 | 0.00 | 98 | 1009.8 |
| 20260504232410 | 13 | 178 | 9.7 | 9.7 | 0.00 | 0.00 | 0.00 | 98 | 1009.8 |
| 20260504232210 | 13 | 176 | 9.7 | 9.7 | 0.00 | 0.00 | 0.00 | 98 | 1009.8 |
| 20260504231810 | 13 | 174 | 9.7 | 9.7 | 0.00 | 0.00 | 0.00 | 98 | 1009.8 |
| 20260504231410 | 13 | 179 | 9.7 | 11.3 | 0.00 | 0.00 | 0.00 | 98 | 1009.8 |
| 20260504231210 | 13 | 180 | 9.7 | 9.7 | 0.00 | 0.00 | 0.00 | 98 | 1009.8 |
| 20260504231016 | 13 | 177 | 9.7 | 9.7 | 0.00 | 0.00 | 0.00 | 98 | 1009.8 |
| 20260504230610 | 13 | 179 | 9.7 | 9.7 | 0.00 | 0.00 | 0.00 | 98 | 1009.8 |
| 20260504230410 | 13 | 179 | 9.7 | 11.3 | 0.00 | 0.00 | 0.00 | 98 | 1009.8 |
| 20260504230210 | 13 | 180 | 9.7 | 11.3 | 0.00 | 0.00 | 0.00 | 98 | 1010.2 |
| 20260504230038 | 13 | 177 | 9.7 | 9.7 | 0.00 | 0.00 | 0.00 | 98 | 1010.2 |
| 20260504225610 | 13 | 177 | 9.7 | 11.3 | 0.00 | 0.00 | 0.00 | 98 | 1010.2 |
| 20260504225410 | 13 | 177 | 9.7 | 9.7 | 0.00 | 0.00 | 0.00 | 98 | 1010.2 |
| 20260504225210 | 13 | 178 | 9.7 | 9.7 | 0.00 | 0.00 | 0.00 | 98 | 1010.5 |
| 20260504225017 | 13 | 176 | 9.7 | 9.7 | 0.00 | 0.00 | 0.00 | 98 | 1010.5 |
| 20260504224610 | 13 | 178 | 9.7 | 9.7 | 0.00 | 0.00 | 0.00 | 98 | 1010.5 |
| 20260504224410 | 13 | 177 | 9.7 | 9.7 | 0.00 | 0.00 | 0.00 | 98 | 1010.5 |
| 20260504224210 | 13 | 176 | 9.7 | 9.7 | 0.00 | 0.00 | 0.00 | 98 | 1010.5 |
| 20260504224017 | 13 | 177 | 9.7 | 9.7 | 0.00 | 0.00 | 0.00 | 98 | 1010.5 |
| 20260504223810 | 13 | 177 | 9.7 | 9.7 | 0.00 | 0.00 | 0.00 | 98 | 1010.2 |
| 20260504223609 | 13 | 177 | 9.7 | 9.7 | 0.00 | 0.00 | 0.00 | 98 | 1010.5 |
| 20260504223410 | 13 | 179 | 8.0 | 11.3 | 0.00 | 0.00 | 0.00 | 98 | 1010.5 |
| 20260504223211 | 13 | 178 | 9.7 | 9.7 | 0.00 | 0.00 | 0.00 | 98 | 1010.5 |
| 20260504223025 | 13 | 178 | 9.7 | 9.7 | 0.00 | 0.00 | 0.00 | 98 | 1010.5 |
| 20260504222810 | 13 | 180 | 9.7 | 11.3 | 0.00 | 0.00 | 0.00 | 98 | 1010.8 |
| 20260504222610 | 13 | 176 | 9.7 | 9.7 | 0.00 | 0.00 | 0.00 | 98 | 1010.8 |
| 20260504222410 | 13 | 180 | 9.7 | 11.3 | 0.00 | 0.00 | 0.00 | 98 | 1010.5 |
| 20260504222210 | 13 | 178 | 9.7 | 11.3 | 0.00 | 0.00 | 0.00 | 98 | 1010.5 |
| 20260504222017 | 13 | 179 | 9.7 | 11.3 | 0.00 | 0.00 | 0.00 | 98 | 1010.8 |
| 20260504221016 | 13 | 176 | 9.7 | 11.3 | 0.00 | 0.00 | 0.00 | 98 | 1010.8 |
| 20260504220810 | 13 | 177 | 9.7 | 9.7 | 0.00 | 0.00 | 0.00 | 98 | 1010.8 |
| 20260504220410 | 13 | 179 | 9.7 | 11.3 | 0.00 | 0.00 | 0.00 | 97 | 1010.8 |
| 20260504220210 | 13 | 178 | 9.7 | 11.3 | 0.00 | 0.00 | 0.00 | 97 | 1010.5 |
| 20260504220036 | 13 | 178 | 9.7 | 9.7 | 0.00 | 0.00 | 3.23 | 97 | 1010.8 |
| 20260504215410 | 13 | 179 | 9.7 | 9.7 | 0.00 | 0.00 | 3.23 | 97 | 1011.2 |
| 20260504215210 | 13 | 178 | 9.7 | 9.7 | 0.00 | 0.00 | 3.23 | 97 | 1010.8 |
| 20260504215016 | 13 | 178 | 9.7 | 9.7 | 0.00 | 0.00 | 3.23 | 97 | 1010.8 |
| 20260504214410 | 13 | 178 | 9.7 | 11.3 | 0.00 | 0.00 | 3.23 | 97 | 1011.2 |
| 20260504214017 | 13 | 177 | 9.7 | 11.3 | 0.00 | 0.00 | 3.23 | 97 | 1011.2 |
| 20260504213610 | 13 | 177 | 9.7 | 9.7 | 0.00 | 0.00 | 3.23 | 97 | 1011.2 |
| 20260504213410 | 13 | 175 | 9.7 | 9.7 | 0.00 | 0.00 | 3.23 | 97 | 1011.2 |
| 20260504213210 | 13 | 180 | 9.7 | 11.3 | 0.00 | 0.00 | 3.23 | 97 | 1011.2 |
| 20260504213025 | 13 | 179 | 9.7 | 11.3 | 0.00 | 0.00 | 3.23 | 97 | 1011.2 |
| 20260504212410 | 13 | 177 | 9.7 | 9.7 | 0.05 | 0.00 | 3.23 | 97 | 1011.2 |
| 20260504212210 | 13 | 178 | 9.7 | 11.3 | 0.05 | 0.00 | 3.23 | 97 | 1011.2 |
| 20260504212017 | 13 | 176 | 9.7 | 11.3 | 0.05 | 0.00 | 3.23 | 97 | 1011.2 |
| 20260504211809 | 13 | 179 | 9.7 | 11.3 | 0.05 | 0.00 | 3.23 | 97 | 1011.2 |
| 20260504211609 | 13 | 176 | 9.7 | 12.9 | 0.00 | 0.00 | 3.23 | 97 | 1011.2 |
| 20260504211410 | 13 | 176 | 11.3 | 11.3 | 0.00 | 0.00 | 3.23 | 97 | 1011.2 |
| 20260504211210 | 13 | 178 | 9.7 | 9.7 | 0.00 | 0.00 | 3.23 | 97 | 1011.2 |
| 20260504211016 | 13 | 180 | 9.7 | 12.9 | 0.00 | 0.00 | 3.23 | 97 | 1011.2 |
| 20260504210810 | 13 | 177 | 9.7 | 9.7 | 0.00 | 0.00 | 3.23 | 97 | 1011.2 |
| 20260504210610 | 13 | 176 | 9.7 | 9.7 | 0.00 | 0.00 | 3.23 | 97 | 1011.2 |
| 20260504210410 | 13 | 179 | 9.7 | 9.7 | 0.00 | 0.00 | 3.23 | 97 | 1011.2 |
| 20260504210034 | 13 | 173 | 9.7 | 11.3 | 0.00 | 0.00 | 3.23 | 97 | 1011.2 |
| 20260504205809 | 13 | 176 | 11.3 | 12.9 | 0.00 | 0.00 | 3.23 | 97 | 1011.2 |
| 20260504205610 | 13 | 178 | 9.7 | 12.9 | 0.00 | 0.00 | 3.23 | 97 | 1011.2 |
| 20260504205409 | 13 | 176 | 9.7 | 11.3 | 0.00 | 0.00 | 3.23 | 97 | 1011.2 |
| 20260504205016 | 13 | 177 | 9.7 | 11.3 | 0.00 | 0.00 | 3.23 | 97 | 1011.2 |
| 20260504204810 | 13 | 177 | 9.7 | 11.3 | 0.00 | 0.00 | 3.23 | 97 | 1011.2 |
| 20260504204610 | 14 | 180 | 9.7 | 12.9 | 0.00 | 0.00 | 3.23 | 97 | 1011.2 |
| 20260504204410 | 14 | 179 | 9.7 | 9.7 | 0.00 | 0.00 | 3.23 | 97 | 1011.2 |
| 20260504204017 | 14 | 178 | 9.7 | 11.3 | 0.00 | 0.00 | 3.23 | 97 | 1011.2 |
| 20260504203810 | 14 | 178 | 11.3 | 12.9 | 0.00 | 0.00 | 3.23 | 97 | 1011.2 |
| 20260504203610 | 14 | 178 | 9.7 | 11.3 | 0.00 | 0.00 | 3.23 | 97 | 1011.2 |
| 20260504203410 | 14 | 175 | 11.3 | 11.3 | 0.00 | 0.00 | 3.23 | 97 | 1011.2 |
| 20260504203210 | 14 | 178 | 9.7 | 9.7 | 0.00 | 0.00 | 3.23 | 97 | 1011.2 |
| 20260504202810 | 14 | 178 | 9.7 | 11.3 | 0.00 | 0.00 | 3.23 | 97 | 1011.2 |
| 20260504202610 | 14 | 180 | 9.7 | 11.3 | 0.00 | 0.00 | 3.23 | 97 | 1011.2 |
| 20260504202410 | 14 | 179 | 9.7 | 9.7 | 0.00 | 0.00 | 3.23 | 97 | 1011.2 |
| 20260504202017 | 14 | 178 | 9.7 | 9.7 | 0.00 | 0.00 | 3.23 | 97 | 1011.2 |
| 20260504201811 | 14 | 178 | 8.0 | 9.7 | 0.00 | 0.00 | 3.23 | 97 | 1011.2 |
| 20260504201610 | 14 | 179 | 9.7 | 9.7 | 0.00 | 0.00 | 3.23 | 97 | 1011.2 |
| 20260504201410 | 14 | 182 | 9.7 | 12.9 | 0.00 | 0.00 | 3.23 | 97 | 1011.2 |
| 20260504201216 | 14 | 179 | 9.7 | 12.9 | 0.00 | 0.00 | 3.23 | 97 | 1011.2 |
| 20260504201016 | 14 | 172 | 11.3 | 12.9 | 0.00 | 0.00 | 3.23 | 97 | 1011.2 |
| 20260504200810 | 14 | 173 | 9.7 | 12.9 | 0.00 | 0.00 | 3.23 | 97 | 1011.2 |
| 20260504200610 | 14 | 179 | 9.7 | 11.3 | 0.00 | 0.00 | 3.23 | 97 | 1011.2 |
| 20260504200410 | 14 | 178 | 9.7 | 9.7 | 0.00 | 0.00 | 3.23 | 97 | 1011.2 |
| 20260504200210 | 14 | 180 | 8.0 | 9.7 | 0.00 | 0.00 | 3.23 | 97 | 1011.2 |
| 20260504200033 | 14 | 179 | 9.7 | 9.7 | 0.05 | 0.00 | 3.23 | 97 | 1011.2 |
| 20260504195810 | 14 | 180 | 9.7 | 9.7 | 0.05 | 0.00 | 3.23 | 97 | 1011.2 |
| 20260504195610 | 14 | 178 | 9.7 | 9.7 | 0.05 | 0.00 | 3.23 | 97 | 1011.2 |
| 20260504195410 | 14 | 180 | 9.7 | 11.3 | 0.05 | 0.00 | 3.23 | 97 | 1011.2 |
| 20260504195210 | 14 | 180 | 9.7 | 11.3 | 0.00 | 0.00 | 3.23 | 97 | 1011.5 |
| 20260504195016 | 14 | 180 | 9.7 | 9.7 | 0.00 | 0.00 | 3.23 | 97 | 1011.2 |
| 20260504194810 | 14 | 177 | 8.0 | 9.7 | 0.00 | 0.00 | 3.23 | 97 | 1011.2 |
| 20260504194210 | 14 | 178 | 9.7 | 11.3 | 0.05 | 0.00 | 3.23 | 96 | 1011.2 |
| 20260504194016 | 15 | 180 | 8.0 | 9.7 | 0.05 | 0.00 | 3.23 | 96 | 1011.5 |
| 20260504193810 | 14 | 181 | 9.7 | 9.7 | 0.05 | 0.00 | 3.23 | 96 | 1011.2 |
| 20260504193610 | 15 | 180 | 9.7 | 9.7 | 0.00 | 0.00 | 3.23 | 96 | 1011.2 |
| 20260504193410 | 15 | 179 | 9.7 | 11.3 | 0.00 | 0.00 | 3.23 | 96 | 1011.2 |
| 20260504193210 | 15 | 180 | 9.7 | 11.3 | 0.00 | 0.00 | 3.23 | 96 | 1011.2 |
| 20260504193025 | 15 | 179 | 9.7 | 9.7 | 0.00 | 0.00 | 3.23 | 96 | 1011.2 |
| 20260504192610 | 15 | 179 | 9.7 | 11.3 | 0.00 | 0.00 | 3.23 | 96 | 1011.2 |
| 20260504192410 | 15 | 179 | 9.7 | 11.3 | 0.00 | 0.00 | 3.23 | 96 | 1011.2 |
| 20260504192016 | 15 | 171 | 9.7 | 9.7 | 0.05 | 0.00 | 3.23 | 96 | 1011.2 |
| 20260504191810 | 15 | 178 | 9.7 | 9.7 | 0.05 | 0.00 | 3.23 | 96 | 1011.2 |
| 20260504191210 | 15 | 179 | 9.7 | 9.7 | 0.00 | 0.00 | 3.23 | 96 | 1011.2 |
| 20260504191016 | 15 | 179 | 9.7 | 11.3 | 0.00 | 0.00 | 3.23 | 96 | 1011.2 |
| 20260504190810 | 15 | 178 | 9.7 | 9.7 | 0.00 | 0.00 | 3.23 | 96 | 1011.2 |
| 20260504190610 | 15 | 180 | 9.7 | 9.7 | 0.00 | 0.00 | 3.23 | 96 | 1011.2 |
| 20260504190410 | 15 | 180 | 9.7 | 9.7 | 0.00 | 0.00 | 3.23 | 96 | 1011.2 |
| 20260504190210 | 15 | 180 | 9.7 | 9.7 | 0.00 | 0.00 | 3.23 | 96 | 1011.2 |
| 20260504185810 | 15 | 177 | 9.7 | 9.7 | 0.00 | 0.00 | 3.23 | 96 | 1011.2 |
| 20260504185610 | 15 | 179 | 9.7 | 11.3 | 0.00 | 0.00 | 3.23 | 96 | 1011.2 |
| 20260504185410 | 15 | 180 | 9.7 | 9.7 | 0.00 | 0.00 | 3.23 | 96 | 1011.2 |
| 20260504185210 | 15 | 179 | 9.7 | 11.3 | 0.00 | 0.00 | 3.23 | 96 | 1011.2 |
| 20260504184810 | 15 | 177 | 11.3 | 11.3 | 0.00 | 0.00 | 3.23 | 96 | 1011.2 |
| 20260504184410 | 15 | 174 | 9.7 | 11.3 | 0.00 | 0.00 | 3.23 | 96 | 1011.2 |
| 20260504184212 | 15 | 177 | 9.7 | 11.3 | 0.00 | 0.00 | 3.23 | 96 | 1011.2 |
| 20260504184016 | 15 | 179 | 9.7 | 11.3 | 0.00 | 0.00 | 3.23 | 96 | 1011.2 |
| 20260504183810 | 15 | 180 | 9.7 | 11.3 | 0.00 | 0.00 | 3.23 | 96 | 1011.2 |
| 20260504183610 | 15 | 180 | 9.7 | 11.3 | 0.00 | 0.00 | 3.23 | 96 | 1011.2 |
| 20260504183410 | 15 | 180 | 11.3 | 11.3 | 0.00 | 0.00 | 3.23 | 96 | 1011.2 |
| 20260504183211 | 15 | 182 | 9.7 | 11.3 | 0.00 | 0.00 | 3.23 | 96 | 1011.2 |
| 20260504183025 | 15 | 178 | 11.3 | 11.3 | 0.05 | 0.00 | 3.23 | 95 | 1010.8 |
| 20260504182811 | 15 | 180 | 9.7 | 12.9 | 0.05 | 0.00 | 3.23 | 95 | 1010.8 |
| 20260504182609 | 15 | 176 | 11.3 | 12.9 | 0.05 | 0.00 | 3.23 | 95 | 1011.2 |
| 20260504182410 | 15 | 175 | 11.3 | 11.3 | 0.05 | 0.00 | 3.23 | 95 | 1010.8 |
| 20260504182210 | 15 | 181 | 9.7 | 11.3 | 0.00 | 0.00 | 3.23 | 95 | 1010.8 |
| 20260504182016 | 15 | 179 | 9.7 | 11.3 | 0.00 | 0.00 | 3.23 | 95 | 1010.8 |
| 20260504181810 | 15 | 180 | 9.7 | 11.3 | 0.00 | 0.00 | 3.23 | 95 | 1010.8 |
| 20260504181610 | 15 | 180 | 9.7 | 11.3 | 0.00 | 0.00 | 3.23 | 95 | 1010.8 |
| 20260504181017 | 15 | 179 | 9.7 | 11.3 | 0.00 | 0.00 | 3.23 | 95 | 1010.5 |
| 20260504180611 | 15 | 179 | 9.7 | 11.3 | 0.00 | 0.00 | 3.23 | 95 | 1011.2 |
| 20260504180210 | 15 | 183 | 9.7 | 9.7 | 0.00 | 0.00 | 3.23 | 95 | 1010.8 |
| 20260504180033 | 15 | 181 | 8.0 | 9.7 | 0.00 | 0.00 | 3.23 | 95 | 1010.8 |
| 20260504175810 | 15 | 179 | 8.0 | 9.7 | 0.05 | 0.00 | 3.23 | 95 | 1010.8 |
| 20260504175610 | 15 | 177 | 9.7 | 9.7 | 0.05 | 0.00 | 3.23 | 95 | 1010.8 |
| 20260504175210 | 15 | 179 | 9.7 | 9.7 | 0.05 | 0.00 | 3.23 | 95 | 1010.8 |
| 20260504175017 | 15 | 178 | 9.7 | 9.7 | 0.05 | 0.00 | 3.23 | 95 | 1010.8 |
| 20260504174610 | 15 | 180 | 9.7 | 9.7 | 0.05 | 0.00 | 3.23 | 95 | 1010.8 |
| 20260504174410 | 15 | 180 | 8.0 | 9.7 | 0.05 | 0.00 | 3.23 | 95 | 1010.8 |
| 20260504174016 | 15 | 180 | 9.7 | 9.7 | 0.05 | 0.00 | 3.23 | 95 | 1010.8 |
| 20260504173810 | 15 | 182 | 9.7 | 9.7 | 0.05 | 0.00 | 2.57 | 95 | 1010.5 |
| 20260504173610 | 15 | 179 | 8.0 | 9.7 | 0.05 | 0.00 | 2.57 | 95 | 1010.8 |
| 20260504173410 | 15 | 180 | 9.7 | 9.7 | 0.05 | 0.00 | 2.57 | 95 | 1010.8 |
| 20260504173025 | 15 | 180 | 9.7 | 11.3 | 0.00 | 0.00 | 2.57 | 95 | 1010.8 |
| 20260504172810 | 15 | 180 | 8.0 | 9.7 | 0.00 | 0.00 | 2.57 | 95 | 1010.8 |
| 20260504172610 | 15 | 179 | 9.7 | 9.7 | 0.00 | 0.00 | 2.57 | 95 | 1010.8 |
| 20260504172410 | 15 | 180 | 9.7 | 11.3 | 0.00 | 0.00 | 2.57 | 95 | 1010.5 |
| 20260504172212 | 15 | 181 | 9.7 | 9.7 | 0.00 | 0.00 | 2.57 | 95 | 1010.8 |
| 20260504172017 | 15 | 180 | 9.7 | 9.7 | 0.00 | 0.00 | 2.57 | 95 | 1010.5 |
| 20260504171810 | 15 | 178 | 9.7 | 11.3 | 0.00 | 0.00 | 2.57 | 95 | 1010.8 |
| 20260504171611 | 15 | 177 | 9.7 | 9.7 | 0.00 | 0.00 | 2.57 | 95 | 1010.8 |
| 20260504171410 | 15 | 178 | 9.7 | 9.7 | 0.00 | 0.00 | 2.57 | 95 | 1010.8 |
| 20260504171210 | 15 | 180 | 9.7 | 9.7 | 0.00 | 0.00 | 2.57 | 95 | 1010.8 |
| 20260504171017 | 15 | 179 | 9.7 | 9.7 | 0.00 | 0.00 | 2.57 | 95 | 1010.8 |
| 20260504170810 | 15 | 178 | 9.7 | 9.7 | 0.05 | 0.00 | 2.57 | 95 | 1010.8 |
| 20260504160410 | 15 | 180 | 9.7 | 9.7 | 0.05 | 0.00 | 2.57 | 96 | 1011.2 |
| 20260504160212 | 15 | 181 | 9.7 | 9.7 | 0.05 | 0.00 | 2.57 | 96 | 1010.8 |
| 20260504151017 | 15 | 183 | 9.7 | 9.7 | 0.05 | 0.00 | 1.93 | 94 | 1011.2 |
| 20260504150810 | 15 | 177 | 8.0 | 9.7 | 0.05 | 0.00 | 1.93 | 94 | 1011.2 |
| 20260504150610 | 15 | 179 | 9.7 | 9.7 | 0.00 | 0.00 | 1.93 | 93 | 1011.2 |
| 20260504150410 | 15 | 178 | 8.0 | 11.3 | 0.00 | 0.00 | 1.93 | 93 | 1011.2 |
| 20260504150210 | 15 | 180 | 9.7 | 11.3 | 0.00 | 0.00 | 1.93 | 93 | 1011.2 |
| 20260504141210 | 15 | 179 | 9.7 | 11.3 | 0.05 | 0.00 | 1.93 | 94 | 1011.5 |
| 20260504141017 | 15 | 161 | 9.7 | 12.9 | 0.05 | 0.00 | 1.93 | 94 | 1011.5 |
| 20260504140810 | 15 | 170 | 11.3 | 12.9 | 0.05 | 0.00 | 1.93 | 94 | 1011.5 |
| 20260504140611 | 16 | 175 | 9.7 | 12.9 | 0.05 | 0.00 | 1.93 | 94 | 1011.2 |
| 20260504140410 | 16 | 173 | 9.7 | 12.9 | 0.05 | 0.00 | 1.27 | 95 | 1011.5 |
| 20260504140211 | 16 | 164 | 8.0 | 12.9 | 0.05 | 0.00 | 1.27 | 95 | 1011.5 |
| 20260504130809 | 16 | 176 | 6.4 | 9.7 | 0.00 | 0.00 | 1.27 | 95 | 1011.9 |
| 20260504130610 | 16 | 167 | 6.4 | 11.3 | 0.00 | 0.00 | 1.27 | 95 | 1011.9 |
| 20260504130410 | 16 | 179 | 8.0 | 11.3 | 0.00 | 0.00 | 1.27 | 94 | 1011.9 |
| 20260504130210 | 16 | 172 | 9.7 | 9.7 | 0.00 | 0.00 | 1.27 | 94 | 1011.9 |
| 20260504110610 | 15 | 172 | 6.4 | 11.3 | 0.18 | 0.00 | 1.27 | 95 | 1012.5 |
| 20260504110410 | 15 | 170 | 9.7 | 9.7 | 0.18 | 0.00 | 1.27 | 95 | 1012.5 |
| 20260504110210 | 15 | 165 | 8.0 | 12.9 | 0.13 | 0.00 | 0.64 | 94 | 1012.5 |
| 20260504100612 | 16 | 176 | 4.8 | 8.0 | 0.00 | 0.00 | 0.00 | 92 | 1012.2 |
| 20260504100410 | 16 | 174 | 8.0 | 8.0 | 0.00 | 0.00 | 0.00 | 92 | 1012.5 |
| 20260504100210 | 16 | 179 | 6.4 | 9.7 | 0.00 | 0.00 | 0.00 | 92 | 1012.5 |
| 20260504081811 | 14 | 178 | 9.7 | 11.3 | 0.00 | 0.00 | 0.00 | 98 | 1012.5 |
| 20260504081610 | 14 | 179 | 9.7 | 11.3 | 0.00 | 0.00 | 0.00 | 98 | 1012.2 |
| 20260504081410 | 14 | 179 | 9.7 | 11.3 | 0.00 | 0.00 | 0.00 | 98 | 1012.2 |
| 20260504081210 | 14 | 180 | 9.7 | 9.7 | 0.00 | 0.00 | 0.00 | 98 | 1012.5 |
| 20260504081017 | 14 | 177 | 9.7 | 9.7 | 0.00 | 0.00 | 0.00 | 98 | 1012.2 |
| 20260504080811 | 14 | 186 | 8.0 | 11.3 | 0.00 | 0.00 | 0.00 | 98 | 1012.2 |
| 20260504080211 | 14 | 179 | 9.7 | 9.7 | 0.00 | 0.00 | 0.00 | 99 | 1012.5 |
| 20260504070211 | 13 | 180 | 9.7 | 9.7 | 0.00 | 0.00 | 0.00 | 98 | 1012.2 |
| 20260504060210 | 13 | 175 | 8.0 | 9.7 | 0.00 | 0.00 | 0.00 | 98 | 1011.9 |